| time (UTC) | temp F | wind direction | speed MPH | gust MPH | rain 1hr in | rain 24hr in | rain mn in | humidity % | barometer mb |
| 20260508131803 | 53 | 262 | 0.0 | 2.0 | 0.00 | 0.00 | 0.00 | 72 | 1012.4 |
| 20260508131303 | 52 | 355 | 0.0 | 2.0 | 0.00 | 0.00 | 0.00 | 69 | 1012.4 |
| 20260508130803 | 52 | 360 | 0.0 | 0.0 | 0.00 | 0.00 | 0.00 | 70 | 1012.4 |
| 20260508130333 | 52 | 13 | 0.0 | 1.0 | 0.00 | 0.00 | 0.00 | 70 | 1012.3 |
| 20260508125803 | 52 | 13 | 0.0 | 5.0 | 0.00 | 0.00 | 0.00 | 71 | 1012.3 |
| 20260508125332 | 52 | 215 | 0.0 | 5.0 | 0.00 | 0.00 | 0.00 | 69 | 1012.4 |
| 20260508124832 | 52 | 220 | 0.0 | 3.0 | 0.00 | 0.00 | 0.00 | 69 | 1012.3 |
| 20260508124332 | 51 | 212 | 1.0 | 4.0 | 0.00 | 0.00 | 0.00 | 72 | 1012.3 |
| 20260508123832 | 51 | 292 | 0.0 | 6.0 | 0.00 | 0.00 | 0.00 | 73 | 1012.4 |
| 20260508122831 | 50 | 234 | 0.0 | 6.0 | 0.00 | 0.00 | 0.00 | 72 | 1012.2 |
| 20260508122332 | 50 | 288 | 2.0 | 6.0 | 0.00 | 0.00 | 0.00 | 72 | 1012.2 |
| 20260508121831 | 50 | 194 | 1.0 | 4.0 | 0.00 | 0.00 | 0.00 | 73 | 1012.2 |
| 20260508120832 | 50 | 117 | 0.0 | 2.0 | 0.00 | 0.00 | 0.00 | 73 | 1012.2 |
| 20260508120331 | 50 | 113 | 0.0 | 3.0 | 0.00 | 0.00 | 0.00 | 72 | 1012.1 |
| 20260508115330 | 50 | 250 | 2.0 | 5.0 | 0.00 | 0.00 | 0.00 | 72 | 1012.1 |
| 20260508114830 | 50 | 273 | 3.0 | 5.0 | 0.00 | 0.00 | 0.00 | 72 | 1012.0 |
| 20260508113830 | 49 | 232 | 0.0 | 3.0 | 0.00 | 0.00 | 0.00 | 72 | 1012.0 |
| 20260508113330 | 49 | 286 | 0.0 | 2.0 | 0.00 | 0.00 | 0.00 | 73 | 1012.0 |
| 20260508112830 | 49 | 90 | 1.0 | 4.0 | 0.00 | 0.00 | 0.00 | 73 | 1012.0 |
| 20260508112330 | 49 | 300 | 0.0 | 4.0 | 0.00 | 0.00 | 0.00 | 72 | 1011.9 |
| 20260508111330 | 48 | 223 | 0.0 | 5.0 | 0.00 | 0.00 | 0.00 | 71 | 1011.7 |
| 20260508110829 | 48 | 202 | 3.0 | 5.0 | 0.00 | 0.00 | 0.00 | 71 | 1011.4 |
| 20260508105829 | 48 | 232 | 2.0 | 7.0 | 0.00 | 0.00 | 0.00 | 71 | 1011.7 |
| 20260508104829 | 48 | 302 | 2.0 | 7.0 | 0.00 | 0.00 | 0.00 | 71 | 1011.5 |
| 20260508104329 | 48 | 212 | 0.0 | 6.0 | 0.00 | 0.00 | 0.00 | 71 | 1011.5 |
| 20260508103828 | 48 | 194 | 2.0 | 6.0 | 0.00 | 0.00 | 0.00 | 71 | 1011.6 |
| 20260508103329 | 48 | 234 | 2.0 | 6.0 | 0.00 | 0.00 | 0.00 | 71 | 1011.5 |
| 20260508102828 | 48 | 230 | 4.0 | 6.0 | 0.00 | 0.00 | 0.00 | 71 | 1011.5 |
| 20260508102328 | 48 | 197 | 5.0 | 6.0 | 0.00 | 0.00 | 0.00 | 71 | 1011.5 |
| 20260508101828 | 48 | 229 | 1.0 | 6.0 | 0.00 | 0.00 | 0.00 | 70 | 1011.4 |
| 20260508101328 | 48 | 242 | 3.0 | 5.0 | 0.00 | 0.00 | 0.00 | 71 | 1011.5 |
| 20260508100828 | 48 | 210 | 3.0 | 4.0 | 0.00 | 0.00 | 0.00 | 71 | 1011.5 |
| 20260508100327 | 48 | 191 | 0.0 | 6.0 | 0.00 | 0.00 | 0.00 | 70 | 1011.5 |
| 20260508095327 | 48 | 188 | 2.0 | 6.0 | 0.00 | 0.00 | 0.00 | 70 | 1011.5 |
| 20260508094827 | 48 | 214 | 2.0 | 6.0 | 0.00 | 0.00 | 0.00 | 70 | 1011.4 |
| 20260508094327 | 48 | 276 | 1.0 | 6.0 | 0.00 | 0.00 | 0.00 | 71 | 1011.4 |
| 20260508093827 | 48 | 238 | 4.0 | 6.0 | 0.00 | 0.00 | 0.00 | 71 | 1011.5 |
| 20260508093326 | 48 | 192 | 3.0 | 5.0 | 0.00 | 0.00 | 0.00 | 70 | 1011.6 |
| 20260508092826 | 48 | 209 | 1.0 | 5.0 | 0.00 | 0.00 | 0.00 | 70 | 1011.6 |
| 20260508092326 | 48 | 207 | 2.0 | 7.0 | 0.00 | 0.00 | 0.00 | 71 | 1011.5 |
| 20260508091325 | 48 | 199 | 1.0 | 6.0 | 0.00 | 0.00 | 0.00 | 70 | 1011.6 |
| 20260508090325 | 48 | 201 | 2.0 | 6.0 | 0.00 | 0.00 | 0.00 | 71 | 1011.8 |
| 20260508085825 | 47 | 201 | 1.0 | 6.0 | 0.00 | 0.00 | 0.00 | 71 | 1011.7 |
| 20260508085325 | 47 | 199 | 1.0 | 6.0 | 0.00 | 0.00 | 0.00 | 71 | 1011.7 |
| 20260508084825 | 47 | 234 | 2.0 | 6.0 | 0.00 | 0.00 | 0.00 | 71 | 1011.6 |
| 20260508084325 | 47 | 226 | 3.0 | 6.0 | 0.00 | 0.00 | 0.00 | 71 | 1011.6 |
| 20260508083826 | 47 | 188 | 3.0 | 6.0 | 0.00 | 0.00 | 0.00 | 71 | 1011.7 |
| 20260508083325 | 47 | 216 | 2.0 | 6.0 | 0.00 | 0.00 | 0.00 | 71 | 1011.6 |
| 20260508082825 | 47 | 200 | 3.0 | 6.0 | 0.00 | 0.00 | 0.00 | 71 | 1011.7 |
| 20260508082324 | 47 | 217 | 2.0 | 5.0 | 0.00 | 0.00 | 0.00 | 71 | 1011.7 |
| 20260508081824 | 47 | 232 | 1.0 | 7.0 | 0.00 | 0.00 | 0.00 | 70 | 1011.7 |
| 20260508081324 | 47 | 236 | 0.0 | 7.0 | 0.00 | 0.00 | 0.00 | 70 | 1011.8 |
| 20260508080824 | 47 | 244 | 0.0 | 6.0 | 0.00 | 0.00 | 0.00 | 70 | 1011.8 |
| 20260508080323 | 47 | 182 | 2.0 | 6.0 | 0.00 | 0.00 | 0.00 | 70 | 1011.8 |
| 20260508075823 | 47 | 198 | 3.0 | 7.0 | 0.00 | 0.00 | 0.00 | 70 | 1011.8 |
| 20260508075323 | 48 | 214 | 1.0 | 7.0 | 0.00 | 0.00 | 0.00 | 70 | 1011.8 |
| 20260508074823 | 48 | 212 | 1.0 | 6.0 | 0.00 | 0.00 | 0.00 | 69 | 1011.8 |
| 20260508073823 | 48 | 211 | 1.0 | 7.0 | 0.00 | 0.00 | 0.00 | 69 | 1011.8 |
| 20260508073322 | 48 | 232 | 3.0 | 7.0 | 0.00 | 0.00 | 0.00 | 69 | 1011.8 |
| 20260508072823 | 48 | 194 | 2.0 | 7.0 | 0.00 | 0.00 | 0.00 | 69 | 1011.8 |
| 20260508072322 | 48 | 202 | 1.0 | 7.0 | 0.00 | 0.00 | 0.00 | 69 | 1011.8 |
| 20260508071822 | 48 | 221 | 2.0 | 6.0 | 0.00 | 0.00 | 0.00 | 68 | 1011.8 |
| 20260508071322 | 48 | 202 | 3.0 | 7.0 | 0.00 | 0.00 | 0.00 | 69 | 1011.9 |
| 20260508070822 | 48 | 203 | 1.0 | 7.0 | 0.00 | 0.00 | 0.00 | 69 | 1011.9 |
| 20260508070322 | 48 | 262 | 2.0 | 6.0 | 0.00 | 0.00 | 0.00 | 69 | 1012.0 |
| 20260508065822 | 48 | 227 | 2.0 | 6.0 | 0.00 | 0.00 | 0.00 | 69 | 1012.1 |
| 20260508065322 | 48 | 209 | 2.0 | 6.0 | 0.00 | 0.00 | 0.00 | 69 | 1012.3 |
| 20260508064821 | 49 | 200 | 1.0 | 6.0 | 0.00 | 0.00 | 0.00 | 68 | 1012.3 |
| 20260508064321 | 49 | 238 | 2.0 | 6.0 | 0.00 | 0.00 | 0.00 | 68 | 1012.3 |
| 20260508063821 | 49 | 197 | 2.0 | 6.0 | 0.00 | 0.00 | 0.00 | 68 | 1012.2 |
| 20260508063321 | 49 | 227 | 2.0 | 6.0 | 0.00 | 0.00 | 0.00 | 67 | 1012.3 |
| 20260508062821 | 49 | 194 | 3.0 | 6.0 | 0.00 | 0.00 | 0.00 | 67 | 1012.2 |
| 20260508062320 | 49 | 206 | 2.0 | 7.0 | 0.00 | 0.00 | 0.00 | 67 | 1012.2 |
| 20260508061820 | 49 | 203 | 1.0 | 7.0 | 0.00 | 0.00 | 0.00 | 67 | 1012.2 |
| 20260508061320 | 49 | 240 | 1.0 | 9.0 | 0.00 | 0.00 | 0.00 | 67 | 1012.3 |
| 20260508060820 | 49 | 214 | 2.0 | 9.0 | 0.00 | 0.00 | 0.00 | 67 | 1012.4 |
| 20260508060320 | 49 | 196 | 1.0 | 7.0 | 0.00 | 0.00 | 0.00 | 67 | 1012.3 |
| 20260508055820 | 50 | 203 | 2.0 | 7.0 | 0.00 | 0.00 | 0.00 | 67 | 1012.3 |
| 20260508055320 | 50 | 200 | 0.0 | 9.0 | 0.00 | 0.00 | 0.00 | 66 | 1012.4 |
| 20260508054820 | 50 | 207 | 3.0 | 10.0 | 0.00 | 0.00 | 0.00 | 66 | 1012.3 |
| 20260508054319 | 50 | 175 | 4.0 | 10.0 | 0.00 | 0.00 | 0.00 | 66 | 1012.3 |
| 20260508053820 | 50 | 215 | 3.0 | 7.0 | 0.00 | 0.00 | 0.00 | 66 | 1012.3 |
| 20260508051818 | 50 | 189 | 1.0 | 9.0 | 0.00 | 0.00 | 0.00 | 65 | 1012.4 |
| 20260508051319 | 50 | 251 | 6.0 | 10.0 | 0.00 | 0.00 | 0.00 | 65 | 1012.4 |
| 20260508050818 | 51 | 194 | 2.0 | 10.0 | 0.00 | 0.00 | 0.00 | 65 | 1012.4 |
| 20260508050318 | 50 | 224 | 5.0 | 10.0 | 0.00 | 0.00 | 0.00 | 65 | 1012.3 |
| 20260508045818 | 50 | 219 | 2.0 | 10.0 | 0.00 | 0.00 | 0.00 | 66 | 1012.3 |
| 20260508045318 | 50 | 225 | 0.0 | 7.0 | 0.00 | 0.00 | 0.00 | 66 | 1012.2 |
| 20260508044817 | 50 | 209 | 1.0 | 7.0 | 0.00 | 0.00 | 0.00 | 66 | 1012.4 |
| 20260508044317 | 50 | 196 | 3.0 | 7.0 | 0.00 | 0.00 | 0.00 | 66 | 1012.3 |
| 20260508043817 | 50 | 223 | 1.0 | 5.0 | 0.00 | 0.00 | 0.00 | 67 | 1012.4 |
| 20260508043317 | 50 | 217 | 1.0 | 7.0 | 0.00 | 0.00 | 0.00 | 67 | 1012.4 |
| 20260508042817 | 51 | 204 | 0.0 | 7.0 | 0.00 | 0.00 | 0.00 | 66 | 1012.4 |
| 20260508042317 | 51 | 214 | 6.0 | 6.0 | 0.00 | 0.00 | 0.00 | 66 | 1012.4 |
| 20260508041816 | 51 | 211 | 5.0 | 5.0 | 0.00 | 0.00 | 0.00 | 67 | 1012.3 |
| 20260508041317 | 51 | 216 | 3.0 | 6.0 | 0.00 | 0.00 | 0.00 | 68 | 1012.4 |
| 20260508040817 | 50 | 194 | 3.0 | 6.0 | 0.00 | 0.00 | 0.00 | 72 | 1012.4 |
| 20260508040316 | 50 | 217 | 0.0 | 5.0 | 0.00 | 0.00 | 0.00 | 72 | 1012.4 |
| 20260508035816 | 51 | 227 | 1.0 | 3.0 | 0.00 | 0.00 | 0.00 | 69 | 1012.2 |
| 20260508035316 | 51 | 227 | 2.0 | 3.0 | 0.00 | 0.00 | 0.00 | 68 | 1012.2 |
| 20260508034315 | 50 | 207 | 0.0 | 4.0 | 0.00 | 0.00 | 0.00 | 70 | 1012.2 |
| 20260508033816 | 50 | 211 | 1.0 | 5.0 | 0.00 | 0.00 | 0.00 | 70 | 1012.3 |
| 20260508033315 | 50 | 205 | 3.0 | 5.0 | 0.00 | 0.00 | 0.00 | 70 | 1012.1 |
| 20260508032815 | 50 | 211 | 1.0 | 4.0 | 0.00 | 0.00 | 0.00 | 71 | 1012.3 |
| 20260508032315 | 50 | 199 | 3.0 | 3.0 | 0.00 | 0.00 | 0.00 | 73 | 1012.3 |
| 20260508031815 | 50 | 199 | 0.0 | 3.0 | 0.00 | 0.00 | 0.00 | 72 | 1012.4 |
| 20260508030814 | 50 | 211 | 0.0 | 3.0 | 0.00 | 0.00 | 0.00 | 72 | 1012.4 |
| 20260508030314 | 49 | 210 | 0.0 | 3.0 | 0.00 | 0.00 | 0.00 | 75 | 1012.4 |
| 20260508025815 | 49 | 210 | 2.0 | 3.0 | 0.00 | 0.00 | 0.00 | 77 | 1012.2 |
| 20260508025314 | 49 | 210 | 0.0 | 0.0 | 0.00 | 0.00 | 0.00 | 77 | 1012.3 |
| 20260508024814 | 50 | 210 | 0.0 | 0.0 | 0.00 | 0.00 | 0.00 | 74 | 1012.3 |
| 20260508024313 | 50 | 210 | 0.0 | 1.0 | 0.00 | 0.00 | 0.00 | 72 | 1012.3 |
| 20260508022313 | 52 | 211 | 0.0 | 2.0 | 0.00 | 0.00 | 0.00 | 68 | 1012.4 |
| 20260508021813 | 52 | 210 | 0.0 | 2.0 | 0.00 | 0.00 | 0.00 | 68 | 1012.4 |
| 20260508021313 | 51 | 211 | 0.0 | 2.0 | 0.00 | 0.00 | 0.00 | 69 | 1012.2 |
| 20260508020813 | 50 | 210 | 0.0 | 1.0 | 0.00 | 0.00 | 0.00 | 71 | 1012.2 |
| 20260508020612 | 50 | 0 | 0.0 | 0.0 | 0.00 | 0.00 | 0.00 | 75 | 1012.2 |
| 20260508015822 | 49 | 213 | 0.0 | 0.0 | 0.00 | 0.00 | 0.00 | 76 | 1012.1 |
| 20260508015322 | 49 | 213 | 0.0 | 0.0 | 0.00 | 0.00 | 0.00 | 74 | 1012.0 |
| 20260508014822 | 49 | 213 | 0.0 | 0.0 | 0.00 | 0.00 | 0.00 | 76 | 1012.0 |
| 20260508014321 | 49 | 213 | 0.0 | 0.0 | 0.00 | 0.00 | 0.00 | 78 | 1011.9 |
| 20260508013821 | 50 | 213 | 0.0 | 0.0 | 0.00 | 0.00 | 0.00 | 78 | 1012.1 |
| 20260508013321 | 51 | 213 | 0.0 | 0.0 | 0.00 | 0.00 | 0.00 | 74 | 1012.1 |
| 20260508012821 | 50 | 213 | 0.0 | 0.0 | 0.00 | 0.00 | 0.00 | 73 | 1011.9 |
| 20260508012321 | 51 | 213 | 0.0 | 0.0 | 0.00 | 0.00 | 0.00 | 75 | 1012.0 |
| 20260508011320 | 51 | 213 | 0.0 | 0.0 | 0.00 | 0.00 | 0.00 | 72 | 1012.0 |
| 20260508010821 | 51 | 213 | 0.0 | 0.0 | 0.00 | 0.00 | 0.00 | 70 | 1012.1 |
| 20260508010320 | 51 | 213 | 0.0 | 0.0 | 0.00 | 0.00 | 0.00 | 71 | 1012.0 |
| 20260508005320 | 52 | 213 | 0.0 | 0.0 | 0.00 | 0.00 | 0.00 | 68 | 1011.9 |
| 20260508004820 | 53 | 213 | 0.0 | 0.0 | 0.00 | 0.00 | 0.00 | 64 | 1012.0 |
| 20260508004320 | 53 | 213 | 0.0 | 2.0 | 0.00 | 0.00 | 0.00 | 65 | 1012.1 |
| 20260508003820 | 53 | 213 | 0.0 | 3.0 | 0.00 | 0.00 | 0.00 | 70 | 1012.1 |
| 20260508003319 | 52 | 135 | 2.0 | 3.0 | 0.00 | 0.00 | 0.00 | 68 | 1012.1 |
| 20260508002319 | 52 | 195 | 0.0 | 0.0 | 0.00 | 0.00 | 0.00 | 71 | 1012.0 |
| 20260508001819 | 52 | 195 | 0.0 | 0.0 | 0.00 | 0.00 | 0.00 | 71 | 1012.0 |
| 20260508000819 | 53 | 236 | 0.0 | 1.0 | 0.00 | 0.00 | 0.00 | 65 | 1012.0 |
| 20260508000320 | 53 | 219 | 0.0 | 0.0 | 0.00 | 0.00 | 0.00 | 65 | 1011.9 |
| 20260507234819 | 55 | 219 | 0.0 | 2.0 | 0.00 | 0.00 | 0.00 | 60 | 1011.7 |
| 20260507234318 | 57 | 219 | 0.0 | 2.0 | 0.00 | 0.00 | 0.00 | 54 | 1011.6 |
| 20260507233317 | 58 | 180 | 1.0 | 6.0 | 0.00 | 0.00 | 0.00 | 48 | 1011.6 |
| 20260507232818 | 58 | 234 | 0.0 | 6.0 | 0.00 | 0.00 | 0.00 | 49 | 1011.6 |
| 20260507231817 | 59 | 206 | 3.0 | 5.0 | 0.00 | 0.00 | 0.00 | 46 | 1011.8 |
| 20260507231317 | 59 | 182 | 1.0 | 4.0 | 0.00 | 0.00 | 0.00 | 47 | 1011.8 |
| 20260507230817 | 59 | 221 | 2.0 | 4.0 | 0.00 | 0.00 | 0.00 | 45 | 1011.7 |
| 20260507230316 | 58 | 252 | 2.0 | 4.0 | 0.00 | 0.00 | 0.00 | 52 | 1011.8 |
| 20260507225816 | 57 | 246 | 0.0 | 6.0 | 0.00 | 0.00 | 0.00 | 51 | 1011.6 |
| 20260507224816 | 60 | 198 | 6.0 | 6.0 | 0.00 | 0.00 | 0.00 | 47 | 1011.6 |
| 20260507224316 | 60 | 279 | 3.0 | 6.0 | 0.00 | 0.00 | 0.00 | 50 | 1011.6 |
| 20260507223315 | 59 | 34 | 0.0 | 7.0 | 0.00 | 0.00 | 0.00 | 44 | 1011.5 |
| 20260507222816 | 58 | 204 | 0.0 | 2.0 | 0.00 | 0.00 | 0.00 | 46 | 1011.5 |
| 20260507222315 | 59 | 200 | 0.0 | 6.0 | 0.00 | 0.00 | 0.00 | 49 | 1011.6 |
| 20260507221816 | 58 | 200 | 0.0 | 6.0 | 0.00 | 0.00 | 0.00 | 45 | 1011.7 |
| 20260507220815 | 58 | 125 | 0.0 | 6.0 | 0.00 | 0.00 | 0.00 | 54 | 1011.7 |
| 20260507220315 | 58 | 274 | 0.0 | 7.0 | 0.00 | 0.00 | 0.00 | 48 | 1011.8 |
| 20260507215815 | 60 | 293 | 2.0 | 7.0 | 0.00 | 0.00 | 0.00 | 40 | 1011.9 |
| 20260507215315 | 60 | 131 | 0.0 | 7.0 | 0.00 | 0.00 | 0.00 | 44 | 1011.9 |
| 20260507214814 | 60 | 86 | 1.0 | 7.0 | 0.00 | 0.00 | 0.00 | 45 | 1011.8 |
| 20260507213814 | 59 | 321 | 1.0 | 5.0 | 0.00 | 0.00 | 0.00 | 43 | 1011.7 |
| 20260507212814 | 60 | 261 | 1.0 | 7.0 | 0.00 | 0.00 | 0.00 | 41 | 1011.9 |
| 20260507212314 | 61 | 193 | 0.0 | 12.0 | 0.00 | 0.00 | 0.00 | 48 | 1012.0 |
| 20260507210813 | 59 | 348 | 6.0 | 6.0 | 0.00 | 0.00 | 0.00 | 50 | 1011.9 |
| 20260507210314 | 60 | 250 | 1.0 | 4.0 | 0.00 | 0.00 | 0.00 | 45 | 1012.1 |
| 20260507205813 | 59 | 5 | 0.0 | 7.0 | 0.00 | 0.00 | 0.00 | 55 | 1012.1 |
| 20260507205313 | 59 | 355 | 1.0 | 11.0 | 0.00 | 0.00 | 0.00 | 49 | 1012.2 |
| 20260507204313 | 59 | 321 | 1.0 | 13.0 | 0.00 | 0.00 | 0.00 | 44 | 1012.2 |
| 20260507203812 | 60 | 319 | 3.0 | 13.0 | 0.00 | 0.00 | 0.00 | 44 | 1012.1 |
| 20260507203312 | 59 | 325 | 5.0 | 11.0 | 0.00 | 0.00 | 0.00 | 45 | 1012.0 |
| 20260507202812 | 59 | 342 | 5.0 | 11.0 | 0.00 | 0.00 | 0.00 | 45 | 1012.1 |
| 20260507202311 | 60 | 302 | 5.0 | 11.0 | 0.00 | 0.00 | 0.00 | 44 | 1012.0 |
| 20260507201812 | 59 | 281 | 2.0 | 18.0 | 0.00 | 0.00 | 0.00 | 47 | 1012.0 |
| 20260507201311 | 60 | 292 | 5.0 | 18.0 | 0.00 | 0.00 | 0.00 | 42 | 1012.1 |
| 20260507200811 | 61 | 317 | 10.0 | 16.0 | 0.00 | 0.00 | 0.00 | 47 | 1012.0 |
| 20260507200311 | 60 | 186 | 2.0 | 11.0 | 0.00 | 0.00 | 0.00 | 42 | 1012.1 |
| 20260507195811 | 59 | 339 | 7.0 | 11.0 | 0.00 | 0.00 | 0.00 | 47 | 1012.1 |
| 20260507195311 | 59 | 340 | 2.0 | 13.0 | 0.00 | 0.00 | 0.00 | 45 | 1012.0 |
| 20260507194810 | 59 | 271 | 9.0 | 14.0 | 0.00 | 0.00 | 0.00 | 45 | 1012.3 |
| 20260507194310 | 59 | 325 | 9.0 | 14.0 | 0.00 | 0.00 | 0.00 | 49 | 1012.4 |
| 20260507193810 | 59 | 351 | 5.0 | 10.0 | 0.00 | 0.00 | 0.00 | 46 | 1012.5 |
| 20260507193311 | 59 | 308 | 5.0 | 10.0 | 0.00 | 0.00 | 0.00 | 43 | 1012.5 |
| 20260507192310 | 58 | 355 | 5.0 | 15.0 | 0.00 | 0.00 | 0.00 | 48 | 1012.5 |
| 20260507191810 | 58 | 360 | 12.0 | 13.0 | 0.00 | 0.00 | 0.00 | 46 | 1012.6 |
| 20260507190809 | 59 | 304 | 1.0 | 12.0 | 0.00 | 0.00 | 0.00 | 51 | 1012.6 |
| 20260507190309 | 58 | 326 | 4.0 | 14.0 | 0.00 | 0.00 | 0.00 | 47 | 1012.6 |
| 20260507185809 | 58 | 267 | 3.0 | 16.0 | 0.00 | 0.00 | 0.00 | 50 | 1012.7 |
| 20260507185309 | 58 | 308 | 5.0 | 16.0 | 0.00 | 0.00 | 0.00 | 46 | 1012.7 |
| 20260507184808 | 58 | 5 | 2.0 | 12.0 | 0.00 | 0.00 | 0.00 | 50 | 1012.6 |
| 20260507184309 | 58 | 12 | 2.0 | 14.0 | 0.00 | 0.00 | 0.00 | 52 | 1012.8 |
| 20260507183808 | 58 | 146 | 1.0 | 14.0 | 0.00 | 0.00 | 0.00 | 48 | 1012.8 |
| 20260507183308 | 58 | 355 | 5.0 | 12.0 | 0.00 | 0.00 | 0.00 | 48 | 1012.8 |
| 20260507182808 | 57 | 5 | 3.0 | 11.0 | 0.00 | 0.00 | 0.00 | 47 | 1012.8 |
| 20260507182308 | 58 | 44 | 3.0 | 13.0 | 0.00 | 0.00 | 0.00 | 49 | 1012.9 |
| 20260507181808 | 58 | 13 | 6.0 | 16.0 | 0.00 | 0.00 | 0.00 | 48 | 1012.9 |
| 20260507181308 | 57 | 31 | 5.0 | 16.0 | 0.00 | 0.00 | 0.00 | 47 | 1012.8 |
| 20260507180307 | 57 | 326 | 10.0 | 19.0 | 0.00 | 0.00 | 0.00 | 47 | 1013.0 |
| 20260507175807 | 57 | 317 | 9.0 | 17.0 | 0.00 | 0.00 | 0.00 | 47 | 1013.1 |
| 20260507175307 | 57 | 17 | 9.0 | 17.0 | 0.00 | 0.00 | 0.00 | 46 | 1013.3 |
| 20260507174807 | 57 | 310 | 9.0 | 15.0 | 0.00 | 0.00 | 0.00 | 52 | 1013.3 |
| 20260507174306 | 57 | 355 | 6.0 | 17.0 | 0.00 | 0.00 | 0.00 | 50 | 1013.3 |
| 20260507173306 | 56 | 332 | 6.0 | 21.0 | 0.00 | 0.00 | 0.00 | 50 | 1013.3 |
| 20260507172806 | 56 | 341 | 5.0 | 21.0 | 0.00 | 0.00 | 0.00 | 53 | 1013.2 |
| 20260507172308 | 56 | 304 | 14.0 | 21.0 | 0.00 | 0.00 | 0.00 | 50 | 1013.2 |
| 20260507171806 | 56 | 336 | 4.0 | 16.0 | 0.00 | 0.00 | 0.00 | 49 | 1013.3 |
| 20260507171306 | 56 | 15 | 9.0 | 16.0 | 0.00 | 0.00 | 0.00 | 48 | 1013.3 |
| 20260507170806 | 56 | 360 | 8.0 | 16.0 | 0.00 | 0.00 | 0.00 | 47 | 1013.3 |
| 20260507165805 | 56 | 334 | 4.0 | 14.0 | 0.00 | 0.00 | 0.00 | 56 | 1013.4 |
| 20260507164805 | 55 | 329 | 9.0 | 16.0 | 0.00 | 0.00 | 0.00 | 52 | 1013.4 |
| 20260507164305 | 55 | 346 | 5.0 | 16.0 | 0.00 | 0.00 | 0.00 | 53 | 1013.5 |
| 20260507163805 | 56 | 349 | 15.0 | 15.0 | 0.00 | 0.00 | 0.00 | 54 | 1013.6 |
| 20260507163304 | 55 | 257 | 7.0 | 14.0 | 0.00 | 0.00 | 0.00 | 51 | 1013.7 |
| 20260507162804 | 55 | 242 | 4.0 | 13.0 | 0.00 | 0.00 | 0.00 | 60 | 1013.8 |
| 20260507162307 | 54 | 346 | 11.0 | 15.0 | 0.00 | 0.00 | 0.00 | 54 | 1013.8 |
| 20260507161804 | 54 | 275 | 6.0 | 15.0 | 0.00 | 0.00 | 0.00 | 54 | 1013.8 |
| 20260507161304 | 54 | 284 | 8.0 | 15.0 | 0.00 | 0.00 | 0.00 | 52 | 1013.7 |
| 20260507160303 | 54 | 272 | 5.0 | 15.0 | 0.00 | 0.00 | 0.00 | 56 | 1013.7 |
| 20260507155804 | 54 | 290 | 5.0 | 12.0 | 0.00 | 0.00 | 0.00 | 54 | 1013.8 |
| 20260507154803 | 53 | 273 | 2.0 | 16.0 | 0.00 | 0.00 | 0.00 | 52 | 1013.8 |
| 20260507154303 | 53 | 323 | 1.0 | 16.0 | 0.00 | 0.00 | 0.00 | 59 | 1013.9 |
| 20260507153833 | 53 | 275 | 9.0 | 13.0 | 0.00 | 0.00 | 0.00 | 53 | 1013.9 |
| 20260507153333 | 53 | 292 | 2.0 | 13.0 | 0.00 | 0.00 | 0.00 | 53 | 1013.9 |
| 20260507152832 | 52 | 311 | 6.0 | 13.0 | 0.00 | 0.00 | 0.00 | 55 | 1013.9 |
| 20260507152332 | 53 | 301 | 6.0 | 13.0 | 0.00 | 0.00 | 0.00 | 51 | 1013.9 |
| 20260507151832 | 53 | 209 | 2.0 | 13.0 | 0.00 | 0.00 | 0.00 | 53 | 1013.8 |
| 20260507151332 | 52 | 219 | 4.0 | 12.0 | 0.00 | 0.00 | 0.00 | 57 | 1013.7 |
| 20260507150832 | 52 | 265 | 7.0 | 11.0 | 0.00 | 0.00 | 0.00 | 54 | 1013.6 |
| 20260507145832 | 52 | 355 | 4.0 | 12.0 | 0.00 | 0.00 | 0.00 | 58 | 1013.7 |
| 20260507145331 | 52 | 313 | 1.0 | 14.0 | 0.00 | 0.00 | 0.00 | 55 | 1013.6 |
| 20260507144831 | 51 | 299 | 7.0 | 14.0 | 0.00 | 0.00 | 0.00 | 59 | 1013.7 |
| 20260507144331 | 51 | 38 | 2.0 | 14.0 | 0.00 | 0.00 | 0.00 | 54 | 1013.7 |
| 20260507143831 | 51 | 306 | 5.0 | 14.0 | 0.00 | 0.00 | 0.00 | 55 | 1013.7 |
| 20260507143331 | 51 | 301 | 9.0 | 12.0 | 0.00 | 0.00 | 0.00 | 56 | 1013.7 |
| 20260507142831 | 51 | 278 | 3.0 | 12.0 | 0.00 | 0.00 | 0.00 | 53 | 1013.7 |
| 20260507142331 | 51 | 200 | 3.0 | 14.0 | 0.00 | 0.00 | 0.00 | 56 | 1013.7 |
| 20260507141830 | 50 | 288 | 10.0 | 14.0 | 0.00 | 0.00 | 0.00 | 55 | 1013.6 |
| 20260507141330 | 51 | 18 | 3.0 | 13.0 | 0.00 | 0.00 | 0.00 | 59 | 1013.7 |
| 20260507140830 | 50 | 327 | 3.0 | 13.0 | 0.00 | 0.00 | 0.00 | 57 | 1013.6 |
| 20260507135830 | 50 | 269 | 3.0 | 13.0 | 0.00 | 0.00 | 0.00 | 54 | 1013.6 |
| 20260507135329 | 50 | 355 | 4.0 | 12.0 | 0.00 | 0.00 | 0.00 | 58 | 1013.7 |
| 20260507134329 | 49 | 343 | 3.0 | 13.0 | 0.00 | 0.00 | 0.00 | 60 | 1013.7 |
| 20260507133830 | 49 | 209 | 2.0 | 11.0 | 0.00 | 0.00 | 0.00 | 59 | 1013.6 |
| 20260507133329 | 48 | 5 | 4.0 | 11.0 | 0.00 | 0.00 | 0.00 | 60 | 1013.7 |
| 20260507132829 | 48 | 71 | 2.0 | 11.0 | 0.00 | 0.00 | 0.00 | 62 | 1013.7 |